Year,Month,Day,Hour,Minute,Value (Times are PST for temperature in C)
2016,08,18,00,00,14.80
2016,08,18,00,01,14.80
2016,08,18,00,02,14.70
2016,08,18,00,03,14.70
2016,08,18,00,04,14.60
2016,08,18,00,05,14.60
2016,08,18,00,06,14.60
2016,08,18,00,07,14.50
2016,08,18,00,08,14.50
2016,08,18,00,09,14.40
2016,08,18,00,10,14.40
2016,08,18,00,11,14.30
2016,08,18,00,12,14.30
2016,08,18,00,13,14.20
2016,08,18,00,14,14.20
2016,08,18,00,15,14.20
2016,08,18,00,16,14.10
2016,08,18,00,17,14.00
2016,08,18,00,18,14.00
2016,08,18,00,19,13.90
2016,08,18,00,20,13.90
2016,08,18,00,21,13.90
2016,08,18,00,22,13.80
2016,08,18,00,23,13.80
2016,08,18,00,24,13.70
2016,08,18,00,25,13.70
2016,08,18,00,26,13.70
2016,08,18,00,27,13.70
2016,08,18,00,28,13.60
2016,08,18,00,29,13.60
2016,08,18,00,30,13.60
2016,08,18,00,31,13.60
2016,08,18,00,32,13.60
2016,08,18,00,33,13.50
2016,08,18,00,34,13.50
2016,08,18,00,35,13.50
2016,08,18,00,36,13.50
2016,08,18,00,37,13.40
2016,08,18,00,38,13.40
2016,08,18,00,39,13.40
2016,08,18,00,40,13.40
2016,08,18,00,41,13.40
2016,08,18,00,42,13.40
2016,08,18,00,43,13.40
2016,08,18,00,44,13.40
2016,08,18,00,45,13.40
2016,08,18,00,46,13.40
2016,08,18,00,47,13.40
2016,08,18,00,48,13.40
2016,08,18,00,49,13.40
2016,08,18,00,50,13.50
2016,08,18,00,51,13.60
2016,08,18,00,52,13.60
2016,08,18,00,53,13.60
2016,08,18,00,54,13.60
2016,08,18,00,55,13.60
2016,08,18,00,56,13.60
2016,08,18,00,57,13.60
2016,08,18,00,58,13.70
2016,08,18,00,59,13.70
2016,08,18,01,00,13.70
2016,08,18,01,01,13.70
2016,08,18,01,02,13.70
2016,08,18,01,03,13.70
2016,08,18,01,04,13.80
2016,08,18,01,05,13.80
2016,08,18,01,06,13.80
2016,08,18,01,07,13.90
2016,08,18,01,08,13.90
2016,08,18,01,09,14.00
2016,08,18,01,10,14.00
2016,08,18,01,11,14.00
2016,08,18,01,12,14.10
2016,08,18,01,13,14.20
2016,08,18,01,14,14.20
2016,08,18,01,15,14.20
2016,08,18,01,16,14.20
2016,08,18,01,17,14.30
2016,08,18,01,18,14.40
2016,08,18,01,19,14.40
2016,08,18,01,20,14.50
2016,08,18,01,21,14.50
2016,08,18,01,22,14.60
2016,08,18,01,23,14.70
2016,08,18,01,24,14.80
2016,08,18,01,25,14.80
2016,08,18,01,26,14.80
2016,08,18,01,27,14.80
2016,08,18,01,28,14.80
2016,08,18,01,29,14.90
2016,08,18,01,30,14.90
2016,08,18,01,31,15.00
2016,08,18,01,32,15.00
2016,08,18,01,33,15.10
2016,08,18,01,34,15.10
2016,08,18,01,35,15.20
2016,08,18,01,36,15.20
2016,08,18,01,37,15.30
2016,08,18,01,38,15.30
2016,08,18,01,39,15.30
2016,08,18,01,40,15.30
2016,08,18,01,41,15.30
2016,08,18,01,42,15.40
2016,08,18,01,43,15.40
2016,08,18,01,44,15.40
2016,08,18,01,45,15.40
2016,08,18,01,46,15.40
2016,08,18,01,47,15.50
2016,08,18,01,48,15.50
2016,08,18,01,49,15.50
2016,08,18,01,50,15.50
2016,08,18,01,51,15.50
2016,08,18,01,52,15.50
2016,08,18,01,53,15.50
2016,08,18,01,54,15.50
2016,08,18,01,55,15.50
2016,08,18,01,56,15.50
2016,08,18,01,57,15.50
2016,08,18,01,58,15.50
2016,08,18,01,59,15.50
2016,08,18,02,00,15.50
2016,08,18,02,01,15.50
2016,08,18,02,02,15.60
2016,08,18,02,03,15.60
2016,08,18,02,04,15.60
2016,08,18,02,05,15.60
2016,08,18,02,06,15.60
2016,08,18,02,07,15.70
2016,08,18,02,08,15.70
2016,08,18,02,09,15.70
2016,08,18,02,10,15.70
2016,08,18,02,11,15.80
2016,08,18,02,12,15.80
2016,08,18,02,13,15.80
2016,08,18,02,14,15.80
2016,08,18,02,15,15.80
2016,08,18,02,16,15.90
2016,08,18,02,17,15.90
2016,08,18,02,18,15.90
2016,08,18,02,19,15.90
2016,08,18,02,20,16.00
2016,08,18,02,21,16.10
2016,08,18,02,22,16.10
2016,08,18,02,23,16.10
2016,08,18,02,24,16.10
2016,08,18,02,25,16.20
2016,08,18,02,26,16.20
2016,08,18,02,27,16.30
2016,08,18,02,28,16.30
2016,08,18,02,29,16.40
2016,08,18,02,30,16.40
2016,08,18,02,31,16.50
2016,08,18,02,32,16.60
2016,08,18,02,33,16.60
2016,08,18,02,34,16.70
2016,08,18,02,35,16.70
2016,08,18,02,36,16.70
2016,08,18,02,37,16.70
2016,08,18,02,38,16.70
2016,08,18,02,39,16.70
2016,08,18,02,40,16.60
2016,08,18,02,41,16.60
2016,08,18,02,42,16.60
2016,08,18,02,43,16.60
2016,08,18,02,44,16.60
2016,08,18,02,45,16.40
2016,08,18,02,46,16.40
2016,08,18,02,47,16.40
2016,08,18,02,48,16.40
2016,08,18,02,49,16.40
2016,08,18,02,50,16.40
2016,08,18,02,51,16.40
2016,08,18,02,52,16.40
2016,08,18,02,53,16.40
2016,08,18,02,54,16.30
2016,08,18,02,55,16.30
2016,08,18,02,56,16.30
2016,08,18,02,57,16.20
2016,08,18,02,58,16.20
2016,08,18,02,59,16.20
2016,08,18,03,00,16.10
2016,08,18,03,01,16.10
2016,08,18,03,02,16.10
2016,08,18,03,03,16.10
2016,08,18,03,04,16.00
2016,08,18,03,05,15.90
2016,08,18,03,06,15.90
2016,08,18,03,07,15.80
2016,08,18,03,08,15.80
2016,08,18,03,09,15.80
2016,08,18,03,10,15.80
2016,08,18,03,11,15.70
2016,08,18,03,12,15.70
2016,08,18,03,13,15.60
2016,08,18,03,14,15.60
2016,08,18,03,15,15.60
2016,08,18,03,16,15.70
2016,08,18,03,17,15.70
2016,08,18,03,18,15.70
2016,08,18,03,19,15.80
2016,08,18,03,20,15.80
2016,08,18,03,21,15.90
2016,08,18,03,22,16.00
2016,08,18,03,23,16.10
2016,08,18,03,24,16.10
2016,08,18,03,25,16.20
2016,08,18,03,26,16.20
2016,08,18,03,27,16.20
2016,08,18,03,28,16.20
2016,08,18,03,29,16.30
2016,08,18,03,30,16.30
2016,08,18,03,31,16.30
2016,08,18,03,32,16.30
2016,08,18,03,33,16.30
2016,08,18,03,34,16.30
2016,08,18,03,35,16.40
2016,08,18,03,36,16.40
2016,08,18,03,37,16.40
2016,08,18,03,38,16.40
2016,08,18,03,39,16.50
2016,08,18,03,40,16.60
2016,08,18,03,41,16.60
2016,08,18,03,42,16.70
2016,08,18,03,43,16.70
2016,08,18,03,44,16.80
2016,08,18,03,45,16.80
2016,08,18,03,46,16.90
2016,08,18,03,47,16.90
2016,08,18,03,48,16.90
2016,08,18,03,49,17.00
2016,08,18,03,50,17.00
2016,08,18,03,51,17.00
2016,08,18,03,52,17.10
2016,08,18,03,53,17.10
2016,08,18,03,54,17.10
2016,08,18,03,55,17.20
2016,08,18,03,56,17.20
2016,08,18,03,57,17.20
2016,08,18,03,58,17.30
2016,08,18,03,59,17.30
2016,08,18,04,00,17.30
2016,08,18,04,01,17.30
2016,08,18,04,02,17.20
2016,08,18,04,03,17.20
2016,08,18,04,04,17.20
2016,08,18,04,05,17.20
2016,08,18,04,06,17.20
2016,08,18,04,07,17.20
2016,08,18,04,08,17.20
2016,08,18,04,09,17.20
2016,08,18,04,10,17.20
2016,08,18,04,11,17.20
2016,08,18,04,12,17.20
2016,08,18,04,13,17.20
2016,08,18,04,14,17.20
2016,08,18,04,15,17.20
2016,08,18,04,16,17.20
2016,08,18,04,17,17.20
2016,08,18,04,18,17.20
2016,08,18,04,19,17.20
2016,08,18,04,20,17.20
2016,08,18,04,21,17.20
2016,08,18,04,22,17.20
2016,08,18,04,23,17.20
2016,08,18,04,24,17.20
2016,08,18,04,25,17.20
2016,08,18,04,26,17.30
2016,08,18,04,27,17.30
2016,08,18,04,28,17.30
2016,08,18,04,29,17.30
2016,08,18,04,30,17.30
2016,08,18,04,31,17.40
2016,08,18,04,32,17.50
2016,08,18,04,33,17.70
2016,08,18,04,34,17.80
2016,08,18,04,35,17.90
2016,08,18,04,36,18.10
2016,08,18,04,37,18.20
2016,08,18,04,38,18.40
2016,08,18,04,39,18.50
2016,08,18,04,40,18.60
2016,08,18,04,41,18.70
2016,08,18,04,42,18.80
2016,08,18,04,43,18.90
2016,08,18,04,44,18.90
2016,08,18,04,45,18.90
2016,08,18,04,46,19.10
2016,08,18,04,47,19.10
2016,08,18,04,48,19.10
2016,08,18,04,49,19.10
2016,08,18,04,50,19.10
2016,08,18,04,51,19.10
2016,08,18,04,52,19.10
2016,08,18,04,53,19.10
2016,08,18,04,54,19.10
2016,08,18,04,55,19.10
2016,08,18,04,56,18.90
2016,08,18,04,57,18.90
2016,08,18,04,58,18.90
2016,08,18,04,59,18.90
2016,08,18,05,00,18.90
2016,08,18,05,01,18.90
2016,08,18,05,02,18.80
2016,08,18,05,03,18.80
2016,08,18,05,04,18.80
2016,08,18,05,05,18.70
2016,08,18,05,06,18.70
2016,08,18,05,07,18.70
2016,08,18,05,08,18.70
2016,08,18,05,09,18.60
2016,08,18,05,10,18.60
2016,08,18,05,11,18.60
2016,08,18,05,12,18.60
2016,08,18,05,13,18.60
2016,08,18,05,14,18.60
2016,08,18,05,15,18.60
2016,08,18,05,16,18.50
2016,08,18,05,17,18.50
2016,08,18,05,18,18.50
2016,08,18,05,19,18.50
2016,08,18,05,20,18.50
2016,08,18,05,21,18.50
2016,08,18,05,22,18.50
2016,08,18,05,23,18.40
2016,08,18,05,24,18.40
2016,08,18,05,25,18.40
2016,08,18,05,26,18.40
2016,08,18,05,27,18.40
2016,08,18,05,28,18.40
2016,08,18,05,29,18.40
2016,08,18,05,30,18.40
2016,08,18,05,31,18.40
2016,08,18,05,32,18.40
2016,08,18,05,33,18.40
2016,08,18,05,34,18.40
2016,08,18,05,35,18.40
2016,08,18,05,36,18.40
2016,08,18,05,37,18.30
2016,08,18,05,38,18.30
2016,08,18,05,39,18.30
2016,08,18,05,40,18.30
2016,08,18,05,41,18.30
2016,08,18,05,42,18.30
2016,08,18,05,43,18.30
2016,08,18,05,44,18.20
2016,08,18,05,45,18.20
2016,08,18,05,46,18.20
2016,08,18,05,47,18.20
2016,08,18,05,48,18.20
2016,08,18,05,49,18.20
2016,08,18,05,50,18.20
2016,08,18,05,51,18.20
2016,08,18,05,52,18.20
2016,08,18,05,53,18.20
2016,08,18,05,54,18.20
2016,08,18,05,55,18.20
2016,08,18,05,56,18.20
2016,08,18,05,57,18.20
2016,08,18,05,58,18.20
2016,08,18,05,59,18.10
2016,08,18,06,00,18.10
2016,08,18,06,01,18.10
2016,08,18,06,02,18.00
2016,08,18,06,03,17.90
2016,08,18,06,04,17.90
2016,08,18,06,05,17.90
2016,08,18,06,06,17.90
2016,08,18,06,07,17.80
2016,08,18,06,08,17.70
2016,08,18,06,09,17.70
2016,08,18,06,10,17.70
2016,08,18,06,11,17.60
2016,08,18,06,12,17.50
2016,08,18,06,13,17.50
2016,08,18,06,14,17.40
2016,08,18,06,15,17.40
2016,08,18,06,16,17.30
2016,08,18,06,17,17.30
2016,08,18,06,18,17.20
2016,08,18,06,19,17.10
2016,08,18,06,20,17.00
2016,08,18,06,21,17.00
2016,08,18,06,22,16.90
2016,08,18,06,23,16.80
2016,08,18,06,24,16.70
2016,08,18,06,25,16.70
2016,08,18,06,26,16.60
2016,08,18,06,27,16.60
2016,08,18,06,28,16.50
2016,08,18,06,29,16.40
2016,08,18,06,30,16.40
2016,08,18,06,31,16.40
2016,08,18,06,32,16.40
2016,08,18,06,33,16.40
2016,08,18,06,34,16.40
2016,08,18,06,35,16.40
2016,08,18,06,36,16.40
2016,08,18,06,37,16.40
2016,08,18,06,38,16.40
2016,08,18,06,39,16.40
2016,08,18,06,40,16.40
2016,08,18,06,41,16.50
2016,08,18,06,42,16.60
2016,08,18,06,43,16.60
2016,08,18,06,44,16.60
2016,08,18,06,45,16.70
2016,08,18,06,46,16.70
2016,08,18,06,47,16.70
2016,08,18,06,48,16.70
2016,08,18,06,49,16.70
2016,08,18,06,50,16.70
2016,08,18,06,51,16.70
2016,08,18,06,52,16.80
2016,08,18,06,53,16.80
2016,08,18,06,54,16.80
2016,08,18,06,55,16.80
2016,08,18,06,56,16.80
2016,08,18,06,57,16.80
2016,08,18,06,58,16.80
2016,08,18,06,59,16.90
2016,08,18,07,00,16.90
2016,08,18,07,01,16.90
2016,08,18,07,02,16.90
2016,08,18,07,03,17.00
2016,08,18,07,04,17.00
2016,08,18,07,05,17.00
2016,08,18,07,06,17.00
2016,08,18,07,07,17.10
2016,08,18,07,08,17.10
2016,08,18,07,09,17.20
2016,08,18,07,10,17.20
2016,08,18,07,11,17.20
2016,08,18,07,12,17.30
2016,08,18,07,13,17.30
2016,08,18,07,14,17.30
2016,08,18,07,15,17.40
2016,08,18,07,16,17.40
2016,08,18,07,17,17.50
2016,08,18,07,18,17.60
2016,08,18,07,19,17.70
2016,08,18,07,20,17.70
2016,08,18,07,21,17.80
2016,08,18,07,22,17.90
2016,08,18,07,23,17.90
2016,08,18,07,24,18.00
2016,08,18,07,25,18.10
2016,08,18,07,26,18.20
2016,08,18,07,27,18.20
2016,08,18,07,28,18.30
2016,08,18,07,29,18.30
2016,08,18,07,30,18.40
2016,08,18,07,31,18.50
2016,08,18,07,32,18.50
2016,08,18,07,33,18.60
2016,08,18,07,34,18.70
2016,08,18,07,35,18.80
2016,08,18,07,36,18.90
2016,08,18,07,37,18.90
2016,08,18,07,38,18.90
2016,08,18,07,39,19.00
2016,08,18,07,40,19.10
2016,08,18,07,41,19.10
2016,08,18,07,42,19.10
2016,08,18,07,43,19.10
2016,08,18,07,44,19.10
2016,08,18,07,45,19.10
2016,08,18,07,46,19.10
2016,08,18,07,47,19.20
2016,08,18,07,48,19.20
2016,08,18,07,49,19.20
2016,08,18,07,50,19.30
2016,08,18,07,51,19.30
2016,08,18,07,52,19.30
2016,08,18,07,53,19.40
2016,08,18,07,54,19.40
2016,08,18,07,55,19.50
2016,08,18,07,56,19.50
2016,08,18,07,57,19.60
2016,08,18,07,58,19.70
2016,08,18,07,59,19.70
2016,08,18,08,00,19.80
2016,08,18,08,01,19.90
2016,08,18,08,02,19.90
2016,08,18,08,03,19.90
2016,08,18,08,04,20.00
2016,08,18,08,05,20.10
2016,08,18,08,06,20.10
2016,08,18,08,07,20.20
2016,08,18,08,08,20.20
2016,08,18,08,09,20.20
2016,08,18,08,10,20.20
2016,08,18,08,11,20.30
2016,08,18,08,12,20.30
2016,08,18,08,13,20.40
2016,08,18,08,14,20.40
2016,08,18,08,15,20.50
2016,08,18,08,16,20.60
2016,08,18,08,17,20.60
2016,08,18,08,18,20.70
2016,08,18,08,19,20.70
2016,08,18,08,20,20.80
2016,08,18,08,21,20.80
2016,08,18,08,22,20.80
2016,08,18,08,23,20.90
2016,08,18,08,24,20.90
2016,08,18,08,25,20.90
2016,08,18,08,26,20.90
2016,08,18,08,27,20.90
2016,08,18,08,28,20.90
2016,08,18,08,29,20.90
2016,08,18,08,30,20.90
2016,08,18,08,31,20.80
2016,08,18,08,32,20.90
2016,08,18,08,33,20.90
2016,08,18,08,34,20.90
2016,08,18,08,35,20.90
2016,08,18,08,36,20.90
2016,08,18,08,37,21.00
2016,08,18,08,38,21.00
2016,08,18,08,39,21.10
2016,08,18,08,40,21.10
2016,08,18,08,41,21.20
2016,08,18,08,42,21.20
2016,08,18,08,43,21.30
2016,08,18,08,44,21.40
2016,08,18,08,45,21.50
2016,08,18,08,46,21.70
2016,08,18,08,47,21.80
2016,08,18,08,48,21.90
2016,08,18,08,49,22.00
2016,08,18,08,50,22.00
2016,08,18,08,51,22.10
2016,08,18,08,52,22.10
2016,08,18,08,53,22.10
2016,08,18,08,54,22.10
2016,08,18,08,55,22.10
2016,08,18,08,56,22.00
2016,08,18,08,57,22.00
2016,08,18,08,58,22.10
2016,08,18,08,59,22.10
2016,08,18,09,00,22.20
2016,08,18,09,01,22.20
2016,08,18,09,02,22.20
2016,08,18,09,03,22.30
2016,08,18,09,04,22.30
2016,08,18,09,05,22.40
2016,08,18,09,06,22.40
2016,08,18,09,07,22.40
2016,08,18,09,08,22.50
2016,08,18,09,09,22.50
2016,08,18,09,10,22.50
2016,08,18,09,11,22.60
2016,08,18,09,12,22.60
2016,08,18,09,13,22.60
2016,08,18,09,14,22.60
2016,08,18,09,15,22.50
2016,08,18,09,16,22.40
2016,08,18,09,17,22.40
2016,08,18,09,18,22.40
2016,08,18,09,19,22.30
2016,08,18,09,20,22.30
2016,08,18,09,21,22.40
2016,08,18,09,22,22.40
2016,08,18,09,23,22.40
2016,08,18,09,24,22.40
2016,08,18,09,25,22.40
2016,08,18,09,26,22.40
2016,08,18,09,27,22.40
2016,08,18,09,28,22.50
2016,08,18,09,29,22.60
2016,08,18,09,30,22.60
2016,08,18,09,31,22.70
2016,08,18,09,32,22.70
2016,08,18,09,33,22.80
2016,08,18,09,34,22.80
2016,08,18,09,35,22.90
2016,08,18,09,36,22.90
2016,08,18,09,37,22.90
2016,08,18,09,38,22.90
2016,08,18,09,39,22.90
2016,08,18,09,40,22.90
2016,08,18,09,41,22.90
2016,08,18,09,42,22.90
2016,08,18,09,43,22.80
2016,08,18,09,44,22.80
2016,08,18,09,45,22.70
2016,08,18,09,46,22.60
2016,08,18,09,47,22.60
2016,08,18,09,48,22.50
2016,08,18,09,49,22.50
2016,08,18,09,50,22.50
2016,08,18,09,51,22.40
2016,08,18,09,52,22.40
2016,08,18,09,53,22.40
2016,08,18,09,54,22.40
2016,08,18,09,55,22.40
2016,08,18,09,56,22.40
2016,08,18,09,57,22.30
2016,08,18,09,58,22.30
2016,08,18,09,59,22.40
2016,08,18,10,00,22.40
2016,08,18,10,01,22.50
2016,08,18,10,02,22.50
2016,08,18,10,03,22.50
2016,08,18,10,04,22.60
2016,08,18,10,05,22.60
2016,08,18,10,06,22.70
2016,08,18,10,07,22.80
2016,08,18,10,08,22.80
2016,08,18,10,09,22.90
2016,08,18,10,10,22.90
2016,08,18,10,11,22.90
2016,08,18,10,12,23.00
2016,08,18,10,13,23.10
2016,08,18,10,14,23.10
2016,08,18,10,15,23.10
2016,08,18,10,16,23.10
2016,08,18,10,17,23.00
2016,08,18,10,18,22.90
2016,08,18,10,19,22.90
2016,08,18,10,20,22.90
2016,08,18,10,21,22.90
2016,08,18,10,22,23.00
2016,08,18,10,23,23.10
2016,08,18,10,24,23.20
2016,08,18,10,25,23.20
2016,08,18,10,26,23.20
2016,08,18,10,27,23.20
2016,08,18,10,28,23.30
2016,08,18,10,29,23.30
2016,08,18,10,30,23.40
2016,08,18,10,31,23.40
2016,08,18,10,32,23.50
2016,08,18,10,33,23.60
2016,08,18,10,34,23.70
2016,08,18,10,35,23.70
2016,08,18,10,36,23.80
2016,08,18,10,37,23.90
2016,08,18,10,38,23.90
2016,08,18,10,39,23.90
2016,08,18,10,40,23.90
2016,08,18,10,41,23.90
2016,08,18,10,42,24.00
2016,08,18,10,43,23.90
2016,08,18,10,44,23.90
2016,08,18,10,45,23.90
2016,08,18,10,46,23.90
2016,08,18,10,47,23.90
2016,08,18,10,48,23.90
2016,08,18,10,49,23.90
2016,08,18,10,50,23.80
2016,08,18,10,51,23.80
2016,08,18,10,52,23.80
2016,08,18,10,53,23.80
2016,08,18,10,54,23.80
2016,08,18,10,55,23.80
2016,08,18,10,56,23.80
2016,08,18,10,57,23.80
2016,08,18,10,58,23.80
2016,08,18,10,59,23.70
2016,08,18,11,00,23.80
2016,08,18,11,01,23.80
2016,08,18,11,02,23.70
2016,08,18,11,03,23.70
2016,08,18,11,04,23.70
2016,08,18,11,05,23.70
2016,08,18,11,06,23.70
2016,08,18,11,07,23.70
2016,08,18,11,08,23.70
2016,08,18,11,09,23.80
2016,08,18,11,10,23.80
2016,08,18,11,11,23.90
2016,08,18,11,12,24.00
2016,08,18,11,13,24.10
2016,08,18,11,14,24.10
2016,08,18,11,15,24.10
2016,08,18,11,16,24.20
2016,08,18,11,17,24.10
2016,08,18,11,18,24.00
2016,08,18,11,19,23.90
2016,08,18,11,20,23.90
2016,08,18,11,21,23.90
2016,08,18,11,22,24.00
2016,08,18,11,23,24.10
2016,08,18,11,24,24.20
2016,08,18,11,25,24.20
2016,08,18,11,26,24.30
2016,08,18,11,27,24.40
2016,08,18,11,28,24.40
2016,08,18,11,29,24.50
2016,08,18,11,30,24.50
2016,08,18,11,31,24.60
2016,08,18,11,32,24.50
2016,08,18,11,33,24.60
2016,08,18,11,34,24.60
2016,08,18,11,35,24.50
2016,08,18,11,36,24.50
2016,08,18,11,37,24.50
2016,08,18,11,38,24.40
2016,08,18,11,39,24.40
2016,08,18,11,40,24.50
2016,08,18,11,41,24.50
2016,08,18,11,42,24.70
2016,08,18,11,43,24.80
2016,08,18,11,44,24.90
2016,08,18,11,45,24.80
2016,08,18,11,46,24.80
2016,08,18,11,47,24.80
2016,08,18,11,48,24.80
2016,08,18,11,49,24.80
2016,08,18,11,50,24.80
2016,08,18,11,51,24.70
2016,08,18,11,52,24.70
2016,08,18,11,53,24.80
2016,08,18,11,54,24.80
2016,08,18,11,55,24.90
2016,08,18,11,56,24.90
2016,08,18,11,57,25.00
2016,08,18,11,58,25.00
2016,08,18,11,59,25.00
2016,08,18,12,00,24.90
2016,08,18,12,01,24.90
2016,08,18,12,02,24.90
2016,08,18,12,03,24.90
2016,08,18,12,04,24.90
2016,08,18,12,05,25.00
2016,08,18,12,06,25.00
2016,08,18,12,07,25.10
2016,08,18,12,08,25.20
2016,08,18,12,09,25.30
2016,08,18,12,10,25.30
2016,08,18,12,11,25.40
2016,08,18,12,12,25.40
2016,08,18,12,13,25.50
2016,08,18,12,14,25.60
2016,08,18,12,15,25.60
2016,08,18,12,16,25.60
2016,08,18,12,17,25.60
2016,08,18,12,18,25.60
2016,08,18,12,19,25.60
2016,08,18,12,20,25.60
2016,08,18,12,21,25.60
2016,08,18,12,22,25.60
2016,08,18,12,23,25.50
2016,08,18,12,24,25.50
2016,08,18,12,25,25.50
2016,08,18,12,26,25.60
2016,08,18,12,27,25.70
2016,08,18,12,28,25.80
2016,08,18,12,29,25.80
2016,08,18,12,30,25.80
2016,08,18,12,31,25.80
2016,08,18,12,32,25.90
2016,08,18,12,33,25.90
2016,08,18,12,34,25.90
2016,08,18,12,35,25.90
2016,08,18,12,36,26.00
2016,08,18,12,37,26.00
2016,08,18,12,38,26.10
2016,08,18,12,39,26.10
2016,08,18,12,40,26.10
2016,08,18,12,41,26.00
2016,08,18,12,42,25.90
2016,08,18,12,43,25.90
2016,08,18,12,44,25.80
2016,08,18,12,45,25.80
2016,08,18,12,46,25.80
2016,08,18,12,47,25.90
2016,08,18,12,48,25.90
2016,08,18,12,49,25.90
2016,08,18,12,50,26.00
2016,08,18,12,51,26.00
2016,08,18,12,52,26.10
2016,08,18,12,53,26.20
2016,08,18,12,54,26.30
2016,08,18,12,55,26.30
2016,08,18,12,56,26.30
2016,08,18,12,57,26.30
2016,08,18,12,58,26.30
2016,08,18,12,59,26.40
2016,08,18,13,00,26.50
2016,08,18,13,01,26.60
2016,08,18,13,02,26.60
2016,08,18,13,03,26.70
2016,08,18,13,04,26.70
2016,08,18,13,05,26.80
2016,08,18,13,06,26.90
2016,08,18,13,07,27.00
2016,08,18,13,08,27.10
2016,08,18,13,09,27.20
2016,08,18,13,10,27.20
2016,08,18,13,11,27.30
2016,08,18,13,12,27.30
2016,08,18,13,13,27.30
2016,08,18,13,14,27.30
2016,08,18,13,15,27.20
2016,08,18,13,16,27.20
2016,08,18,13,17,27.20
2016,08,18,13,18,27.20
2016,08,18,13,19,27.30
2016,08,18,13,20,27.30
2016,08,18,13,21,27.20
2016,08,18,13,22,27.20
2016,08,18,13,23,27.20
2016,08,18,13,24,27.20
2016,08,18,13,25,27.30
2016,08,18,13,26,27.30
2016,08,18,13,27,27.30
2016,08,18,13,28,27.30
2016,08,18,13,29,27.30
2016,08,18,13,30,27.30
2016,08,18,13,31,27.30
2016,08,18,13,32,27.30
2016,08,18,13,33,27.30
2016,08,18,13,34,27.30
2016,08,18,13,35,27.30
2016,08,18,13,36,27.30
2016,08,18,13,37,27.30
2016,08,18,13,38,27.20
2016,08,18,13,39,27.20
2016,08,18,13,40,27.20
2016,08,18,13,41,27.10
2016,08,18,13,42,27.00
2016,08,18,13,43,26.90
2016,08,18,13,44,26.80
2016,08,18,13,45,26.80
2016,08,18,13,46,26.80
2016,08,18,13,47,26.70
2016,08,18,13,48,26.70
2016,08,18,13,49,26.70
2016,08,18,13,50,26.70
2016,08,18,13,51,26.80
2016,08,18,13,52,26.80
2016,08,18,13,53,26.80
2016,08,18,13,54,26.80
2016,08,18,13,55,26.80
2016,08,18,13,56,26.80
2016,08,18,13,57,26.90
2016,08,18,13,58,26.90
2016,08,18,13,59,26.90
2016,08,18,14,00,27.00
2016,08,18,14,01,27.10
2016,08,18,14,02,27.20
2016,08,18,14,03,27.20
2016,08,18,14,04,27.30
2016,08,18,14,05,27.30
2016,08,18,14,06,27.30
2016,08,18,14,07,27.30
2016,08,18,14,08,27.30
2016,08,18,14,09,27.30
2016,08,18,14,10,27.30
2016,08,18,14,11,27.30
2016,08,18,14,12,27.30
2016,08,18,14,13,27.30
2016,08,18,14,14,27.20
2016,08,18,14,15,27.20
2016,08,18,14,16,27.20
2016,08,18,14,17,27.30
2016,08,18,14,18,27.30
2016,08,18,14,19,27.30
2016,08,18,14,20,27.40
2016,08,18,14,21,27.50
2016,08,18,14,22,27.60
2016,08,18,14,23,27.70
2016,08,18,14,24,27.90
2016,08,18,14,25,27.90
2016,08,18,14,26,28.00
2016,08,18,14,27,28.00
2016,08,18,14,28,28.00
2016,08,18,14,29,28.10
2016,08,18,14,30,28.20
2016,08,18,14,31,28.30
2016,08,18,14,32,28.30
2016,08,18,14,33,28.40
2016,08,18,14,34,28.60
2016,08,18,14,35,28.60
2016,08,18,14,36,28.70
2016,08,18,14,37,28.80
2016,08,18,14,38,28.90
2016,08,18,14,39,28.90
2016,08,18,14,40,28.90
2016,08,18,14,41,28.90
2016,08,18,14,42,28.90
2016,08,18,14,43,28.90
2016,08,18,14,44,28.90
2016,08,18,14,45,28.90
2016,08,18,14,46,28.90
2016,08,18,14,47,28.80
2016,08,18,14,48,28.90
2016,08,18,14,49,28.90
2016,08,18,14,50,29.00
2016,08,18,14,51,29.10
2016,08,18,14,52,29.10
2016,08,18,14,53,29.10
2016,08,18,14,54,29.10
2016,08,18,14,55,29.10
2016,08,18,14,56,29.10
2016,08,18,14,57,29.10
2016,08,18,14,58,29.00
2016,08,18,14,59,28.90
2016,08,18,15,00,28.90
2016,08,18,15,01,28.90
2016,08,18,15,02,28.90
2016,08,18,15,03,28.90
2016,08,18,15,04,28.90
2016,08,18,15,05,28.90
2016,08,18,15,06,28.80
2016,08,18,15,07,28.80
2016,08,18,15,08,28.80
2016,08,18,15,09,28.80
2016,08,18,15,10,28.80
2016,08,18,15,11,28.80
2016,08,18,15,12,28.90
2016,08,18,15,13,28.90
2016,08,18,15,14,28.90
2016,08,18,15,15,28.90
2016,08,18,15,16,28.90
2016,08,18,15,17,28.90
2016,08,18,15,18,28.90
2016,08,18,15,19,28.90
2016,08,18,15,20,28.90
2016,08,18,15,21,28.90
2016,08,18,15,22,28.80
2016,08,18,15,23,28.80
2016,08,18,15,24,28.90
2016,08,18,15,25,28.90
2016,08,18,15,26,28.90
2016,08,18,15,27,28.90
2016,08,18,15,28,28.90
2016,08,18,15,29,28.90
2016,08,18,15,30,28.90
2016,08,18,15,31,28.90
2016,08,18,15,32,29.00
2016,08,18,15,33,29.10
2016,08,18,15,34,29.10
2016,08,18,15,35,29.10
2016,08,18,15,36,29.10
2016,08,18,15,37,29.20
2016,08,18,15,38,29.30
2016,08,18,15,39,29.40
2016,08,18,15,40,29.40
2016,08,18,15,41,29.50
2016,08,18,15,42,29.50
2016,08,18,15,43,29.60
2016,08,18,15,44,29.50
2016,08,18,15,45,29.50
2016,08,18,15,46,29.50
2016,08,18,15,47,29.50
2016,08,18,15,48,29.60
2016,08,18,15,49,29.60
2016,08,18,15,50,29.70
2016,08,18,15,51,29.70
2016,08,18,15,52,29.70
2016,08,18,15,53,29.50
2016,08,18,15,54,29.40
2016,08,18,15,55,29.30
2016,08,18,15,56,29.30
2016,08,18,15,57,29.20
2016,08,18,15,58,29.20
2016,08,18,15,59,29.20
2016,08,18,16,00,29.10
2016,08,18,16,01,29.10
2016,08,18,16,02,29.10
2016,08,18,16,03,29.10
2016,08,18,16,04,29.10
2016,08,18,16,05,29.00
2016,08,18,16,06,29.00
2016,08,18,16,07,29.10
2016,08,18,16,08,29.10
2016,08,18,16,09,29.20
2016,08,18,16,10,29.30
2016,08,18,16,11,29.30
2016,08,18,16,12,29.40
2016,08,18,16,13,29.50
2016,08,18,16,14,29.50
2016,08,18,16,15,29.60
2016,08,18,16,16,29.70
2016,08,18,16,17,29.80
2016,08,18,16,18,29.90
2016,08,18,16,19,30.00
2016,08,18,16,20,30.10
2016,08,18,16,21,30.10
2016,08,18,16,22,30.10
2016,08,18,16,23,30.10
2016,08,18,16,24,30.10
2016,08,18,16,25,30.10
2016,08,18,16,26,30.20
2016,08,18,16,27,30.20
2016,08,18,16,28,30.20
2016,08,18,16,29,30.30
2016,08,18,16,30,30.30
2016,08,18,16,31,30.20
2016,08,18,16,32,30.20
2016,08,18,16,33,30.20
2016,08,18,16,34,30.20
2016,08,18,16,35,30.20
2016,08,18,16,36,30.20
2016,08,18,16,37,30.20
2016,08,18,16,38,30.20
2016,08,18,16,39,30.20
2016,08,18,16,40,30.20
2016,08,18,16,41,30.20
2016,08,18,16,42,30.20
2016,08,18,16,43,30.10
2016,08,18,16,44,30.00
2016,08,18,16,45,29.90
2016,08,18,16,46,29.80
2016,08,18,16,47,29.80
2016,08,18,16,48,29.80
2016,08,18,16,49,29.80
2016,08,18,16,50,29.80
2016,08,18,16,51,29.80
2016,08,18,16,52,29.90
2016,08,18,16,53,30.00
2016,08,18,16,54,30.10
2016,08,18,16,55,30.20
2016,08,18,16,56,30.30
2016,08,18,16,57,30.30
2016,08,18,16,58,30.30
2016,08,18,16,59,30.40
2016,08,18,17,00,30.50
2016,08,18,17,01,30.60
2016,08,18,17,02,30.60
2016,08,18,17,03,30.70
2016,08,18,17,04,30.70
2016,08,18,17,05,30.70
2016,08,18,17,06,30.70
2016,08,18,17,07,30.60
2016,08,18,17,08,30.50
2016,08,18,17,09,30.40
2016,08,18,17,10,30.30
2016,08,18,17,11,30.30
2016,08,18,17,12,30.30
2016,08,18,17,13,30.30
2016,08,18,17,14,30.30
2016,08,18,17,15,30.20
2016,08,18,17,16,30.10
2016,08,18,17,17,30.00
2016,08,18,17,18,29.90
2016,08,18,17,19,29.90